EHI
0 0 0 0 0 0 0 0 0 0 0 0 0 0 0 0 0 0 0 0 0 0 0 0 0 0 0 0 0 0 0 0 0 0 0 0 0 0 0 0 0 0 0
0 0 0 0 0 0 0 0 0 0 0 0 0 0 0 0 0 0 0 0 0 0 0 0 0 0 0 0 0 0 0 0 0 0 0 0 0 0 0 0 0 0 0
0 0 0 0 0 0 0 0 0 0 0 0 0 0 0 0 0 0 0 0 0 0 0 0 0 0 0 0 0 0 0 0 0 0 0 0 0 0 0 0 0 0 0
0 0 0 0 0 0 0 0 0 0 0 0 0 0 0 0 0 0 0 0 0 0 0 0 0 0 0 0 0 0 0 0 0 0 0 0 0 0 0 0 0 0 0
0 0 0 0 0 0 0 0 0 0 0 0 0 0 0 0 0 0 0 0 0 0 0 0 0 0 0 0 0 0 0 0 0 0 0 0 0 0 0 0 0 0 0
0 0 0 0 0 0 0 0 0 0 0 0 0 0 0 0 0 0 0 0 0 0 0 0 0 0 0 0 0 0 0 0 0 0 0 0 0 0 0 0 0 0 0
0 0 0 0 0 0 0 0 0 0 0 0 0 0 0 0 0 0 0 0 0 0 0 0 0 0 0 0 0 0 0 0 0 0 0 0 0 0 0 0 0 0 0
0 0 0 0 0 0 0 0 0 0 0 0 0 0 0 0 0 0 0 0 0 0 0 0 0 0 0 0 0 0 0 0 0 0 0 0 0 0 0 0 0 0 0
0 0 0 0 0 0 0 0 0 0 0 0 0 0 0 0 0 0 0 0 0 0 0 0 0 0 0 0 0 0 0 0 0 0 0 0 0 0 0 0 0 0 0
0 0 0 0 0 0 0 0 0 0 0 0 0 0 0 0 0 0 0 0 0 0 0 0 0 0 0 0 0 0 0 0 0 0 0 0 0 0 0 0 0 0 0
0 0 0 0 0 0 0 0 0 0 0 0 0 0 0 0 0 0 0 0 0 0 0 0 0 0 0 0 0 0 0 0 0 0 0 0 0 0 0 0 0 0 0
0 0 0 0 0 0 0 0 0 0 0 0 0 0 0 0 0 0 0 0 0 0 0 0 0 0 0 0 0 0 0 0 0 0 0 0 0 0 0 0 0 0 0
0 0 0 0 0 0 0 0 0 0 0 0 0 0 0 0 0 0 0 0 0 0 0 0 0 0 0 0 0 0 0 0 0 0 0 0 0 0 0 0 0 0 0
0 0 0 0 0 0 0 0 0 0 0 0 0 0 0 0 0 0 0 0 0 0 0 0 0 0 0 0 0 0 0 0 0 0 0 0 0 0 0 0 0 0 0
0 0 0 0 0 0 0 0 0 0 0 0 0 0 0 0 0 0 0 0 0 0 0 0 0 0 0 0 0 0 0 0 0 0 0 0 0 0 0 0 0 0 0
0 0 0 0 0 0 0 0 0 0 0 0 0 0 0 0 0 0 0 0 0 0 0 0 0 0 0 0 0 0 0 0 0 0 0 0 0 0 0 0 0 0 0
0 0 0 0 0 0 0 0 0 0 0 0 0 0 0 0 0 0 0 0 0 0 0 0 0 0 0 0 0 0 0 0 0 0 0 0 0 0 0 0 0 0 0
0 0 0 0 0 0 0 0 0 0 0 0 0 0 0 0 0 0 0 0 0 0 0 0 0 0 0 0 0 0 0 0 0 0 0 0 0 0 0 0 0 0 0
0 0 0 0 0 0 0 0 0 0 0 0 0 0 0 0 0 0 0 0 0 0 0 0 0 0 0 0 0 0 0 0 0 0 0 0 0 0 0 0 0 0 0
0 0 0 0 0 0 0 0 0 0 0 0 0 0 0 0 0 0 0 0 0 0 0 0 0 0 0 0 0 0 0 0 0 0 0 0 0 0 0 0 0 0 0
0 0 0 0 0 0 0 0 0 0 0 0 0 0 0 0 0 0 0 0 0 0 0 0 0 0 0 0 0 0 0 0 0 0 0 0 0 0 0 0 0 0 0
0 0 0 0 0 0 0 0 0 0 0 0 0 0 0 0 0 0 0 0 0 0 0 0 0 0 0 0 0 0 0 0 0 0 0 0 0 0 0 0 0 0 0
0 0 0 0 0 0 0 0 0 0 0 0 0 0 0 0 0 0 0 0 0 0 0 0 0 0 0 0 0 0 0 0 0 0 0 0 0 0 0 0 0 0 0
0 0 0 0 0 0 0 0 0 0 0 0 0 0 0 0 0 0 0 0 0 0 0 0 0 0 0 0 0 0 0 0 0 0 0 0 0 0 0 0 0 0 0
0 0 0 0 0 0 0 0 0 0 0 0 0 0 0 0 0 0 0 0 0 0 0 0 0 0 0 0 0 0 0 0 0 0 0 0 0 0 0 0 0 0 0
0 0 0 0 0 0 0 0 0 0 0 0 0 0 0 0 0 0 0 0 0 0 0 0 0 0 0 0 0 0 0 0 0 0 0 0 0 0 0 0 0 0 0
Wind_Speed
6 6 6 7 7 7 7 8 8 8 8 8 8 8 8 10 10 10 10 10 11 10 9 10 10 8 6 6 6 6 5 5 5 4 3 4 5 6 6 6 6 7 8
7 7 7 7 7 7 8 9 8 8 7 7 8 8 9 10 9 10 11 11 11 11 11 10 11 8 9 8 7 7 6 6 6 6 4 4 5 6 6 6 5 5 5
7 7 7 7 7 8 8 8 7 7 7 7 8 9 9 9 9 10 11 11 11 11 11 11 11 10 9 8 8 7 6 6 5 6 5 4 4 4 5 4 5 4 4
7 7 7 8 8 8 8 7 7 6 7 7 8 8 9 9 9 9 10 10 10 10 11 11 11 11 10 9 9 9 7 7 7 7 6 5 4 4 5 5 4 3 3
7 7 7 8 7 7 7 7 6 6 7 6 7 7 7 7 7 7 8 9 10 10 10 10 10 11 12 10 9 9 8 7 7 7 6 5 5 6 6 5 5 3 2
7 8 7 7 7 7 7 7 6 6 6 5 6 6 6 6 9 11 9 7 8 9 9 8 9 10 11 12 13 14 13 11 9 8 6 8 8 6 5 6 6 5 3
7 8 7 7 7 7 7 7 6 6 5 6 5 6 5 6 10 11 11 7 7 8 8 8 7 8 9 7 8 9 10 12 13 10 10 10 9 8 8 7 7 5 3
7 7 7 7 7 7 6 7 6 5 5 5 5 5 4 6 10 11 10 7 6 7 8 8 8 8 8 7 6 6 6 6 8 7 8 8 7 8 8 7 7 4 4
7 7 8 7 8 7 7 7 5 5 5 5 6 5 5 7 10 10 9 5 5 6 7 7 8 8 10 10 7 7 6 4 5 7 7 7 8 9 9 7 7 6 4
7 7 8 7 7 7 7 7 5 5 5 5 5 5 5 5 8 8 8 3 4 4 4 5 8 9 10 10 8 8 8 7 6 6 5 6 6 7 9 8 8 7 5
7 7 8 7 7 7 6 5 5 5 4 4 5 5 5 5 5 7 7 4 4 4 3 4 5 8 10 9 8 7 10 9 7 7 5 5 5 4 4 4 4 5 5
7 7 7 7 7 7 6 5 4 4 4 4 4 5 4 4 4 5 7 6 6 3 3 3 4 7 7 7 7 9 12 10 6 6 5 4 5 4 4 4 5 4 4
7 7 7 8 7 6 6 6 5 4 3 4 3 4 4 3 2 5 5 6 7 4 2 3 4 5 5 6 9 11 9 7 7 7 6 5 4 5 6 6 7 8 8
7 7 7 7 7 6 5 4 4 4 4 4 4 4 4 3 2 1 1 2 2 2 1 1 2 3 4 6 8 7 5 6 6 6 6 5 5 5 6 6 6 6 6
7 7 6 6 6 5 5 5 5 4 5 5 4 3 4 4 4 6 5 3 2 2 2 1 2 3 4 4 4 4 5 5 6 6 7 7 6 6 5 5 5 5 5
7 6 5 5 5 5 5 6 7 7 9 9 8 7 5 6 7 7 6 6 5 3 1 1 2 3 4 5 5 5 4 5 6 6 7 7 7 7 6 5 5 6 7
6 6 5 5 5 5 4 5 6 7 8 8 8 8 7 6 6 6 5 5 4 2 0 1 2 3 4 5 5 5 5 5 6 6 7 7 7 7 7 6 6 7 6
6 7 7 5 4 4 4 4 4 5 6 5 5 7 7 7 6 6 5 3 2 2 1 2 2 3 3 4 5 6 5 5 5 6 7 7 7 7 7 7 6 7 7
6 5 5 4 4 4 4 4 4 4 4 4 4 4 6 7 7 6 5 1 1 1 1 1 2 3 4 4 5 5 6 5 6 6 6 7 7 7 7 7 7 9 8
5 9 8 5 4 4 4 4 4 4 4 4 4 4 4 4 3 4 3 2 1 1 1 1 2 3 4 5 5 5 6 6 6 6 6 6 6 6 8 8 7 7 6
5 6 9 6 4 4 4 4 4 3 3 4 4 4 6 3 2 2 2 2 1 1 1 1 2 2 3 4 5 6 6 5 5 5 6 6 6 6 6 7 7 7 7
5 4 4 4 4 4 4 4 3 3 4 4 4 4 6 3 1 1 1 2 2 1 1 1 2 1 2 4 5 6 6 6 5 6 6 6 7 7 7 7 7 7 8
4 5 5 4 4 5 5 4 3 3 4 4 3 3 2 2 2 2 2 2 2 2 2 2 2 1 2 3 3 5 6 6 5 6 7 7 7 7 7 8 9 9 8
5 5 5 5 4 4 3 3 3 3 3 3 3 2 2 2 1 2 2 2 2 2 2 2 2 2 3 3 3 4 4 5 5 6 9 9 8 7 7 8 8 9 8
5 5 5 4 4 4 3 3 3 3 3 3 2 2 1 1 1 1 2 2 2 2 2 2 2 2 4 5 5 5 8 9 8 7 7 8 9 8 8 9 8 9 8
5 5 4 4 4 3 3 3 3 3 2 2 2 1 1 1 1 1 1 2 2 2 2 2 2 3 3 4 7 9 11 11 11 11 8 7 9 8 9 8 10 9 10
Wind_Direction
284 281 282 282 282 279 275 271 268 267 261 258 255 253 251 245 234 228 229 224 224 223 222 221 221 216 212 202 197 205 205 198 221 234 234 191 190 183 174 176 172 176 183
288 287 283 281 282 280 279 275 270 267 261 257 255 255 254 251 237 228 229 227 223 221 221 220 220 216 213 204 199 205 206 201 203 213 216 195 192 182 172 173 172 173 176
289 288 285 283 281 278 280 277 272 270 266 262 259 256 255 250 243 232 228 227 224 221 219 218 217 211 215 209 202 204 202 202 196 201 208 198 190 177 168 165 164 166 167
293 287 284 283 282 281 284 278 272 270 267 264 263 260 255 252 251 241 229 224 224 224 221 217 214 212 212 209 205 203 197 192 190 193 192 190 188 176 167 168 169 163 158
293 289 286 284 283 284 288 287 280 275 274 271 271 265 255 250 250 245 231 224 221 224 221 216 217 218 217 216 208 198 191 191 188 186 190 188 187 180 183 173 169 147 138
296 293 293 294 291 289 291 294 282 274 274 277 271 266 258 256 260 258 254 231 225 224 220 217 217 215 216 224 220 210 202 196 192 189 196 193 195 188 175 166 159 159 180
301 301 298 296 295 290 290 292 281 275 276 274 272 269 264 262 262 262 265 253 234 226 217 216 218 216 214 203 206 207 208 206 201 197 194 199 193 186 174 172 173 172 177
303 305 304 303 300 296 293 289 278 276 273 272 273 273 269 269 271 266 267 260 244 227 222 214 210 207 205 195 190 197 201 203 193 191 194 195 190 180 179 173 160 130 102
305 305 306 304 304 301 299 294 284 278 275 271 269 271 268 266 272 273 272 257 247 235 223 213 206 202 197 194 189 189 188 185 165 166 170 168 166 169 163 145 149 149 146
304 304 304 304 304 303 301 298 289 278 279 278 273 268 271 268 269 276 281 258 250 238 219 209 209 206 195 192 190 184 181 178 163 150 144 142 153 154 162 173 169 162 147
306 308 309 309 306 303 300 294 287 289 285 284 286 287 284 277 275 279 287 274 254 238 227 217 205 198 197 197 199 189 179 170 159 153 146 145 145 149 158 153 155 164 156
311 307 308 309 307 304 301 303 299 301 295 287 293 300 299 290 282 281 292 290 290 264 246 233 202 193 195 191 185 170 164 161 154 147 145 150 151 151 146 126 110 96 92
314 313 309 308 308 309 309 310 309 303 297 296 295 294 297 294 279 291 301 309 305 295 265 236 207 191 188 177 166 163 163 160 155 153 156 159 149 146 135 116 100 92 78
318 317 313 312 314 317 317 311 307 305 300 295 296 295 298 302 301 301 316 329 337 335 327 169 181 176 163 151 153 155 160 160 158 153 149 143 137 137 135 131 127 118 97
317 316 317 318 318 321 321 315 307 300 294 291 290 289 291 295 296 303 303 303 302 285 288 250 173 161 153 149 147 145 147 146 144 143 144 143 142 137 133 130 129 120 116
315 316 317 317 316 318 320 322 321 310 315 308 299 296 298 293 305 312 314 314 315 296 288 178 177 166 158 156 150 145 146 149 148 147 147 147 146 144 136 130 129 126 126
314 313 312 312 311 313 314 314 319 328 327 318 313 311 306 307 317 319 317 320 325 324 286 167 164 155 152 153 152 150 148 147 145 148 145 144 142 141 141 140 136 128 126
313 311 308 305 305 305 305 306 307 313 321 329 330 323 323 327 324 322 321 340 6 5 81 139 148 145 146 145 143 141 139 141 142 143 141 142 143 144 143 142 140 137 135
315 311 308 306 305 304 305 305 306 309 311 314 324 333 334 335 337 339 333 359 24 13 53 93 119 130 132 132 135 136 138 139 139 139 140 142 146 144 141 140 138 139 135
316 313 313 311 310 311 311 308 308 310 312 311 313 316 324 330 341 344 348 359 35 42 67 87 98 121 128 132 135 135 131 129 134 138 140 141 144 143 142 141 142 142 139
314 315 316 316 315 313 311 309 308 307 307 307 304 306 311 313 315 323 340 358 23 41 65 87 103 118 128 132 133 132 131 132 136 139 140 142 141 136 135 135 136 135 132
313 314 316 314 313 313 311 309 307 305 304 303 307 317 321 326 341 359 3 5 15 32 58 84 88 97 128 137 140 140 139 139 144 143 138 136 134 133 133 134 134 135 135
312 313 313 311 309 309 310 310 309 308 306 307 311 319 329 345 357 2 2 11 24 42 52 71 89 88 105 115 132 142 145 148 150 145 138 135 135 137 138 138 139 141 142
312 311 311 310 310 307 308 310 310 309 309 311 313 318 333 347 4 2 7 23 31 44 55 68 90 107 117 115 118 123 128 134 138 140 139 138 138 138 137 137 138 141 140
313 310 309 308 308 307 308 311 312 312 312 313 316 326 345 5 16 16 27 38 40 51 52 60 86 100 118 124 126 127 129 129 132 132 132 133 135 136 136 135 136 138 139
314 310 308 309 308 308 309 311 312 313 311 311 317 328 346 6 21 35 47 52 53 54 53 62 81 97 109 119 123 127 130 130 130 131 131 131 132 133 134 133 136 137 137